Hourly Data Report for September 12, 2017

All times are specified in Local Standard Time (LST). Add 1 hour to adjust for Daylight Saving Time where and when it is observed.

NORTH CAPE
PRINCE EDWARD ISLAND

47°03'29.000" N
63°59'55.000" W
7.60 m
8300516
71987
WNE

Download Data

Hourly Data (September 2017)
Hourly Data Report for September 12, 2017
Temp Definition
°C
Dew Point Temp Definition
°C
Rel Hum Definition
%
Wind Dir Definition
10's deg

Wind Spd Definition
km/h
Visibility Definition
km
Stn Press Definition
kPa
Hmdx Definition


Wind Chill Definition


Weather Definition


TIME
00:00 15.1 11.4 79 3 25   101.33     LegendNANA
01:00 14.9 10.7 76 36 23   101.30     LegendNANA
02:00 14.7 11.6 82 1 23   101.24     LegendNANA
03:00 14.5 10.6 77 2 23   101.17     LegendNANA
04:00 14.5 10.5 77 3 24   101.12     LegendNANA
05:00 14.3 10.1 76 4 20   101.08     LegendNANA
06:00 14.3 10.0 75 36 18   101.09     LegendNANA
07:00 14.7 10.4 76 1 17   101.06     LegendNANA
08:00 15.2 10.6 74 2 16   101.07     LegendNANA
09:00 15.6 11.3 76 2 12   101.00     LegendNANA
10:00 15.9 11.1 73 36 10   101.00     LegendNANA
11:00 16.1 11.0 72 2 7   100.93     LegendNANA
12:00 16.4 11.2 71 36 5   100.86     LegendNANA
13:00 16.1 10.4 69 32 7   100.76     LegendNANA
14:00 16.0 11.0 72 31 8   100.73     LegendNANA
15:00 16.8 11.1 69 1 6   100.64     LegendNANA
16:00 15.7 10.6 72 5 5   100.58     LegendNANA
17:00 15.8 10.2 69 9 6   100.50     LegendNANA
18:00 15.4 10.8 74 10 12   100.48     LegendNANA
19:00 14.5 10.8 79 12 14   100.46     LegendNANA
20:00 14.8 11.2 79 11 15   100.48     LegendNANA
21:00 14.5 11.1 80 13 16   100.44     LegendNANA
22:00 14.8 10.8 77 13 17   100.42     LegendNANA
23:00 14.9 11.1 78 15 12   100.42     LegendNANA

Notes on Data Quality.

Legend

  • E = Estimated
  • M = Missing
  • NA = Not Available
  • ‡ = Partner data that is not subject to review by the National Climate Archives
Date modified: